Voltar ao catálogo

DELTA 1 DEB

AtivoLEO
NORAD 10661·DEBRIS·🇺🇸 United States

Lançado Jul 29, 1976 de Vandenberg Space Force Base

Loading…

Próximas Passagens (próximas 24 horas)

TLE

AtualizadoSource: Space-Track

Época: Sep 14, 2026, 10:43 UTC

1 10661U 76077X   26257.44675288  .00001120  00000-0  21704-2 0  9997
2 10661 101.1774 241.0203 0107365 188.2887 324.3581 13.37366646346726

Acompanhe DELTA 1 DEB em tempo real com AllMySat

Download on the App Store